TimeEDT,TemperatureF,Dew PointF,Humidity,Sea Level PressureIn,VisibilityMPH,Wind Direction,Wind SpeedMPH,Gust SpeedMPH,PrecipitationIn,Events,Conditions,WindDirDegrees,DateUTC
12:56 AM,66.9,61.0,81,29.88,10.0,SW,11.5,-,0.00,,Mostly Cloudy,220,2013-09-08 04:56:00
1:56 AM,68.0,61.0,78,29.87,10.0,WSW,5.8,-,N/A,,Mostly Cloudy,240,2013-09-08 05:56:00
2:56 AM,66.9,61.0,81,29.85,10.0,SW,4.6,-,N/A,,Clear,230,2013-09-08 06:56:00
3:56 AM,68.0,63.0,84,29.83,10.0,WSW,6.9,-,N/A,,Overcast,240,2013-09-08 07:56:00
4:56 AM,69.1,63.0,81,29.81,10.0,WSW,8.1,-,N/A,,Clear,240,2013-09-08 08:56:00
5:56 AM,69.1,60.1,73,29.80,10.0,West,6.9,-,N/A,,Clear,260,2013-09-08 09:56:00
6:56 AM,68.0,61.0,78,29.81,8.0,WNW,4.6,-,N/A,,Clear,290,2013-09-08 10:56:00
7:56 AM,70.0,57.9,65,29.80,9.0,West,8.1,-,N/A,,Clear,270,2013-09-08 11:56:00
8:56 AM,72.0,57.9,61,29.80,10.0,WNW,9.2,-,N/A,,Clear,290,2013-09-08 12:56:00
9:56 AM,73.0,57.9,59,29.79,10.0,Variable,4.6,-,N/A,,Clear,0,2013-09-08 13:56:00
10:56 AM,75.9,61.0,60,29.78,10.0,West,9.2,-,N/A,,Clear,280,2013-09-08 14:56:00
11:56 AM,78.1,61.0,56,29.79,10.0,NW,11.5,19.6,N/A,,Scattered Clouds,310,2013-09-08 15:56:00
12:56 PM,78.1,61.0,56,29.79,9.0,NNW,12.7,20.7,N/A,,Overcast,340,2013-09-08 16:56:00
1:56 PM,78.1,60.1,54,29.79,10.0,NW,10.4,-,N/A,,Mostly Cloudy,320,2013-09-08 17:56:00
2:56 PM,80.1,59.0,48,29.80,10.0,NW,11.5,20.7,N/A,,Scattered Clouds,320,2013-09-08 18:56:00
3:56 PM,78.1,55.9,46,29.82,10.0,North,16.1,26.5,N/A,,Partly Cloudy,350,2013-09-08 19:56:00
4:56 PM,75.0,48.0,38,29.85,10.0,North,12.7,-,N/A,,Clear,350,2013-09-08 20:56:00
5:56 PM,73.0,44.1,35,29.89,10.0,North,12.7,-,N/A,,Clear,350,2013-09-08 21:56:00
6:56 PM,66.9,48.0,51,29.92,10.0,NNW,5.8,-,N/A,,Clear,340,2013-09-08 22:56:00
7:56 PM,64.9,46.9,52,29.96,10.0,North,6.9,-,N/A,,Partly Cloudy,10,2013-09-08 23:56:00
8:56 PM,63.0,46.0,54,30.01,10.0,North,11.5,-,N/A,,Clear,360,2013-09-09 00:56:00
9:56 PM,60.1,44.1,55,30.05,10.0,North,8.1,-,N/A,,Clear,350,2013-09-09 01:56:00
10:56 PM,57.9,43.0,58,30.06,10.0,NNE,11.5,-,N/A,,Clear,20,2013-09-09 02:56:00
11:56 PM,55.0,43.0,64,30.08,10.0,North,9.2,-,N/A,,Clear,10,2013-09-09 03:56:00